Location: Recife
(8.0585°S, 34.8848°W)
Time: 10:26:38
(UTC-03:00)

Hubble Space Telescope - Pass Details

Date: 28 September 2021
Orbit: 535 x 538 km, 28.5° (Epoch: 16 October)

Event Time Altitude Azimuth Distance (km) Brightness Sun altitude
Rises 17:31:00 0° 316° (NW) 2,659 5.0 -4.9°
Reaches altitude 10° 17:33:24 10° 326° (NW) 1,772 3.9 -5.5°
Maximum altitude 17:37:07 33° 31° (NNE) 910 1.7 -6.4°
Drops below altitude 10° 17:40:51 10° 95° (E) 1,782 2.8 -7.3°
Enters shadow 17:41:08 - 97° (E) 1,884 2.9 -7.4°
